CAPE
0 0 0 0 0 0 0 0 0 0 0 0 0 0 0 0 1 7 32 23 12 0 0 0 0 0 0 0 0 0 0 0 0 0 0 0 0 0 0 0 0 0 0
0 0 2 3 0 0 0 0 0 0 0 0 0 0 0 0 0 2 22 15 12 2 0 0 0 0 0 0 0 0 0 0 0 0 0 0 0 0 0 0 0 0 0
0 0 0 1 8 11 2 0 0 0 0 0 0 0 0 0 0 0 1 3 0 0 0 0 0 0 0 0 0 0 0 0 0 0 0 0 0 0 0 0 0 0 0
1 0 0 0 0 0 3 0 0 0 0 0 0 0 0 0 0 0 0 0 0 0 0 0 0 0 0 0 0 0 0 0 0 0 0 0 0 0 0 0 0 0 0
5 0 0 1 1 1 2 0 0 0 0 0 0 0 0 0 0 0 0 0 0 0 0 0 0 0 0 0 0 0 0 0 0 0 0 0 0 0 0 0 0 0 2
0 0 0 0 1 1 5 5 8 4 8 0 0 0 0 0 0 0 0 0 0 0 0 0 0 0 0 0 0 0 0 0 0 0 0 0 0 0 0 0 0 2 16
0 0 0 0 5 1 0 0 4 7 0 1 0 0 0 0 0 0 0 0 0 0 0 0 0 0 0 0 0 0 0 0 0 0 0 0 0 0 0 0 0 0 0
0 0 0 4 1 4 4 0 0 0 0 0 0 0 0 0 0 0 0 0 0 0 0 0 0 0 0 0 0 0 0 0 0 0 0 0 0 0 0 0 0 0 0
0 0 0 13 0 2 10 1 0 0 0 0 0 0 0 0 0 0 0 0 0 0 0 0 0 0 0 0 0 1 0 0 0 0 0 0 0 0 0 0 0 0 11
6 0 1 1 0 0 0 19 24 12 0 0 0 0 0 0 0 0 0 0 0 0 0 0 0 0 5 0 0 0 0 0 0 0 0 0 0 0 0 0 11 18 3
7 9 8 0 0 0 0 0 10 23 15 0 0 0 0 0 0 0 0 0 0 0 0 0 0 0 0 0 0 0 0 0 0 0 0 0 0 0 0 0 0 0 0
5 1 6 8 0 0 0 0 0 0 0 0 0 0 0 0 0 0 0 0 0 0 0 0 0 0 0 0 0 0 0 0 0 0 0 0 0 0 0 0 0 0 0
1 8 9 10 11 3 0 0 0 0 0 0 0 0 0 0 0 0 0 0 0 0 0 0 0 0 0 0 0 0 0 0 0 0 0 0 0 0 0 0 0 0 0
3 9 7 14 30 24 1 0 0 0 0 0 0 0 0 0 0 0 0 0 0 0 0 0 0 0 0 0 0 0 0 0 0 0 0 0 0 0 0 0 0 0 0
11 10 11 26 29 8 0 0 0 0 0 0 0 0 0 0 0 0 0 0 0 0 0 0 0 0 0 0 0 0 0 0 0 0 0 0 0 0 0 0 0 0 0
0 3 18 21 19 13 0 0 0 0 0 0 0 0 0 0 0 0 0 0 0 0 0 0 0 0 0 0 0 0 0 0 0 0 0 0 0 0 0 0 0 0 0
1 6 17 27 18 3 0 0 0 0 0 0 0 0 0 0 0 0 0 0 0 0 0 0 0 0 0 0 0 0 0 0 0 0 0 0 0 0 0 0 0 0 0
7 11 21 21 6 0 0 0 0 0 0 0 0 0 0 0 0 0 0 0 0 0 0 0 0 0 0 0 0 0 0 0 0 0 0 0 0 0 0 0 0 0 0
0 19 32 7 0 0 0 0 0 0 0 0 0 0 0 0 0 0 0 0 0 0 0 0 0 0 0 0 0 0 0 0 0 0 0 0 0 0 0 0 0 0 0
4 23 21 2 0 0 0 0 0 0 0 0 0 0 0 0 0 0 0 0 0 0 0 0 0 0 0 0 0 0 0 0 0 0 0 0 0 0 0 0 0 0 0
12 26 21 4 0 0 0 0 0 0 0 0 0 0 0 0 0 0 0 0 0 0 0 0 0 0 0 0 0 0 0 0 0 0 0 0 0 0 0 0 0 0 0
6 17 21 7 1 4 0 0 0 0 0 0 0 0 0 0 0 0 0 0 0 0 0 0 0 0 0 0 0 0 0 0 0 0 0 0 0 0 0 0 0 0 0
5 8 15 21 2 7 1 0 0 0 0 0 0 0 0 0 0 0 0 0 0 0 0 0 0 0 0 0 0 0 0 0 0 0 0 0 0 0 0 0 0 0 0
7 14 8 19 0 0 7 13 0 0 0 0 0 0 0 0 0 0 0 0 0 0 0 0 0 0 0 0 0 0 0 0 0 0 0 0 0 0 0 0 0 0 0
10 13 16 16 12 10 2 0 3 5 0 0 0 0 0 0 0 0 0 0 0 0 0 0 0 0 0 0 0 0 0 0 0 0 0 0 0 0 0 0 0 0 0
13 6 8 8 3 5 11 4 1 0 1 0 0 0 0 0 0 0 0 0 0 0 0 0 0 0 0 0 0 0 0 0 0 0 0 0 0 0 0 0 0 0 0
CIN
0 0 0 -6 0 0 0 0 0 0 0 0 0 0 0 0 -36 -44 -33 -32 -36 -11 0 0 0 0 0 0 0 0 0 0 0 0 0 0 0 0 0 0 0 0 0
0 0 -62 -58 0 0 0 0 0 0 0 0 0 0 0 0 0 -42 -49 -46 -45 -48 0 0 0 0 0 0 0 0 0 0 0 0 0 0 0 0 0 0 0 0 0
0 0 0 -44 -36 -17 -45 0 0 0 0 0 0 0 0 0 0 0 -42 -42 0 0 0 0 0 0 0 0 0 0 0 0 0 0 0 0 0 0 0 0 0 0 0
-16 0 0 0 -10 -18 -15 0 0 0 0 0 0 0 0 0 0 0 0 0 0 0 0 0 0 0 0 0 0 0 0 0 0 0 0 0 0 0 0 0 0 0 0
-30 0 0 -40 -47 -45 -27 0 0 0 0 0 0 0 0 0 0 0 0 0 0 0 0 0 0 0 0 0 0 0 0 0 0 0 0 0 0 0 0 0 0 0 -48
0 0 0 -10 -51 -14 -34 -23 -22 -30 -46 0 0 0 0 0 0 0 0 0 0 0 0 0 0 0 0 0 0 0 0 0 0 0 0 0 0 0 0 0 0 -78 -39
0 0 0 0 -60 -10 0 0 -31 -43 0 -59 0 0 0 0 0 0 0 0 0 0 0 0 0 0 0 0 0 0 0 0 0 0 0 0 0 0 0 0 0 0 0
0 0 0 -43 -44 -49 -56 0 0 0 0 0 0 0 0 0 0 0 0 0 0 0 0 0 0 0 0 0 0 -35 -32 0 0 0 0 0 0 0 0 0 0 0 0
0 0 -40 -42 -29 -40 -50 -52 0 0 0 0 0 0 0 0 0 0 0 0 0 0 0 0 0 0 0 0 0 -84 0 -8 0 -22 0 0 0 0 0 0 0 0 -39
-44 0 -4 -6 0 0 0 -57 -62 -67 -2 0 0 0 0 0 0 0 0 0 0 0 0 0 0 0 -124 0 0 0 0 0 0 0 0 0 0 0 0 0 -130 -61 -74
-47 -43 -42 -4 0 0 0 0 -58 -64 -66 0 0 0 0 0 0 0 0 0 0 0 0 0 0 0 0 0 0 0 0 0 0 0 0 0 0 0 0 0 0 0 0
-58 -16 -50 -63 0 0 0 0 0 0 0 0 0 0 0 0 0 0 0 0 0 0 0 0 -19 0 0 0 0 0 0 0 0 0 0 0 0 0 0 0 0 0 0
-63 -48 -51 -72 -83 -100 0 0 0 0 0 0 0 0 0 0 0 0 0 0 0 0 0 0 0 0 0 0 0 0 0 0 0 0 0 0 0 0 0 0 0 0 0
-47 -48 -51 -44 -61 -77 -41 0 0 0 0 0 0 0 0 0 0 0 0 0 0 0 0 0 0 0 0 0 0 0 0 0 0 0 0 0 0 0 0 0 0 0 0
-54 -55 -53 -61 -64 -85 0 0 0 0 0 0 0 0 0 0 0 0 0 0 0 0 0 0 0 0 0 0 0 0 0 0 0 0 0 0 0 0 0 0 0 0 0
0 -49 -55 -66 -69 -83 0 0 0 0 0 0 0 0 0 0 0 0 0 0 0 0 0 0 0 0 0 0 0 0 0 0 0 0 0 0 0 0 0 0 0 0 0
-54 -55 -61 -65 -71 -78 0 0 0 0 0 0 0 0 0 0 0 0 0 0 0 0 0 0 0 0 0 0 0 0 0 0 0 0 0 0 0 0 0 0 0 0 0
-63 -50 -68 -69 -83 0 0 0 0 0 0 0 0 0 0 0 0 0 0 0 0 0 0 0 0 0 0 0 0 0 0 0 0 0 0 0 0 0 0 0 0 0 0
-3 -49 -65 -81 0 0 0 0 0 0 0 0 0 0 0 0 0 0 0 0 0 0 0 0 0 0 0 0 0 0 0 0 0 0 0 0 0 0 0 0 0 0 0
-59 -65 -81 -67 0 0 0 0 0 0 0 0 0 0 0 0 0 0 0 0 0 0 0 0 0 0 0 0 0 0 0 0 0 0 0 0 0 0 0 0 0 0 0
-59 -67 -78 -70 -3 0 0 0 0 0 0 0 0 0 0 0 0 0 0 0 0 0 0 0 0 0 0 0 0 0 0 0 0 0 0 0 0 0 0 0 0 0 0
-62 -63 -62 -61 -81 -70 -7 0 0 0 0 0 0 0 0 0 0 0 0 0 0 0 0 0 0 0 0 0 0 0 0 0 0 0 0 0 0 0 0 0 0 0 0
-68 -67 -66 -47 -59 -64 -44 -3 0 0 0 0 0 0 0 0 0 0 0 0 0 0 0 0 0 0 0 0 0 0 0 0 0 0 0 0 0 0 0 0 0 0 0
-61 -55 -68 -57 0 -4 -48 -35 -8 0 0 0 0 0 0 0 0 0 0 0 0 0 0 0 0 0 0 0 0 0 0 0 0 0 0 0 0 0 0 0 0 0 0
-54 -43 -48 -54 -46 -47 -34 -29 -40 -48 0 0 0 0 0 0 0 0 0 0 0 0 0 0 0 0 0 0 0 0 0 0 0 0 0 0 0 0 0 0 0 0 0
-46 -45 -38 -43 -49 -44 -40 -44 -41 -16 -29 0 0 0 0 0 0 0 0 0 0 0 0 0 0 0 0 0 0 0 0 0 0 0 0 0 0 0 0 0 0 0 0
Wind_Speed
24 26 28 28 26 24 21 19 17 11 8 9 9 8 11 11 11 10 9 8 8 9 7 8 9 10 12 14 15 16 17 15 14 15 15 15 16 17 18 16 13 11 10
21 22 23 25 24 24 20 19 17 12 11 12 11 7 8 8 7 7 7 8 9 9 9 9 10 12 12 13 14 16 17 17 16 14 12 13 13 13 12 10 9 8 7
21 22 22 18 18 20 20 18 17 16 13 13 11 8 9 11 10 11 12 13 11 10 11 11 12 13 12 12 13 14 15 14 14 13 12 12 12 11 10 9 7 7 8
20 23 22 21 18 17 18 19 17 15 14 14 12 12 13 13 13 13 14 14 13 11 10 12 12 13 14 14 15 16 15 13 13 13 13 13 13 11 11 8 6 9 6
23 24 19 18 17 18 19 19 18 17 16 15 14 14 14 13 12 14 14 14 14 14 13 14 15 16 16 15 16 15 15 14 14 14 14 13 12 11 9 10 7 5 9
22 23 17 16 16 15 15 15 16 15 15 17 19 18 18 16 14 15 17 16 16 16 15 13 14 14 14 14 15 15 15 15 14 14 13 12 11 10 11 10 11 12 13
18 13 9 8 8 9 10 12 14 15 18 20 20 20 19 17 15 16 17 17 18 17 15 14 14 13 11 10 10 11 12 12 12 12 10 10 9 10 9 7 8 10 8
12 7 7 5 5 6 11 15 16 17 19 21 20 19 17 16 14 15 16 17 17 16 15 14 13 12 10 9 9 9 10 10 11 11 9 7 6 4 5 6 6 6 4
7 6 4 4 5 5 9 14 17 18 18 17 16 15 15 13 10 13 16 16 16 15 14 14 13 11 10 9 8 7 7 11 10 9 8 6 4 3 5 9 6 6 5
7 6 6 5 5 5 8 12 14 16 17 16 15 14 13 11 9 10 13 15 15 14 13 12 11 10 9 9 10 9 7 8 8 12 14 14 13 11 9 8 9 8 9
9 8 6 5 5 7 9 10 12 14 15 15 14 13 12 11 11 10 10 13 13 11 10 9 9 10 10 11 13 11 9 7 10 11 12 12 14 17 19 17 13 11 10
10 9 8 6 5 5 6 10 9 11 13 13 14 12 11 10 11 10 10 9 8 9 9 11 11 15 19 18 15 12 13 14 14 13 14 14 14 15 16 17 17 13 11
12 12 11 9 8 8 8 9 9 10 11 12 13 12 11 10 11 10 10 8 8 14 14 15 17 17 17 15 13 14 15 15 15 15 14 14 14 14 16 19 21 20 18
15 14 13 13 12 11 9 11 10 9 9 12 13 12 11 11 11 10 11 10 11 14 15 16 16 16 15 14 15 16 18 17 16 17 16 15 15 17 18 20 23 22 17
16 16 16 17 16 14 12 13 14 13 11 10 11 12 13 11 10 10 12 12 13 14 15 15 15 14 15 15 17 19 20 19 19 18 19 19 19 18 18 19 22 24 23
19 19 19 18 19 18 17 15 16 17 16 14 13 13 13 13 11 10 10 14 15 15 16 15 16 17 17 17 18 19 21 21 20 19 21 22 21 20 18 20 22 25 24
21 22 21 21 21 21 20 18 17 18 20 19 17 16 16 15 15 14 11 18 19 15 16 16 16 17 18 19 19 20 20 20 19 20 22 23 22 21 20 21 23 25 25
23 23 22 23 23 23 22 21 20 20 21 20 20 20 20 18 16 18 19 17 17 18 16 16 17 18 18 19 20 20 20 20 21 21 22 23 23 22 21 21 24 26 25
23 23 23 24 25 24 22 21 21 21 21 22 22 22 19 20 15 17 18 17 16 15 15 16 17 17 18 18 19 20 20 21 21 20 21 23 24 22 22 20 22 26 25
22 23 24 25 26 25 22 22 21 20 20 18 19 20 19 17 16 16 17 16 16 15 14 15 17 17 17 18 19 20 21 21 22 22 21 23 24 23 22 20 22 24 25
16 23 24 25 25 24 22 20 21 20 21 17 13 16 17 17 17 16 16 15 14 14 13 14 16 18 18 18 19 20 21 21 22 22 21 23 24 24 22 21 21 23 24
19 22 24 26 25 25 24 22 21 22 20 17 14 16 16 18 17 16 15 14 14 13 12 14 16 18 18 19 20 20 20 20 21 22 22 23 24 24 22 20 22 22 23
21 22 24 25 26 26 26 23 23 24 21 19 15 16 16 18 17 16 15 15 14 13 12 13 16 18 18 19 19 20 21 20 19 20 21 21 22 23 22 20 21 22 23
22 24 24 23 24 26 28 26 24 25 21 21 18 17 17 17 16 16 16 16 15 13 12 12 14 17 19 20 20 20 20 19 18 18 19 18 21 21 21 20 20 21 21
19 23 22 23 23 19 23 24 25 26 24 22 22 20 19 18 18 16 15 15 16 15 14 12 14 16 18 20 20 21 20 20 20 20 19 17 19 20 19 20 20 19 20
18 20 21 25 25 25 23 24 26 25 25 23 20 20 21 19 18 17 14 15 15 15 14 12 13 15 17 19 20 21 21 22 22 21 21 18 17 19 18 19 20 18 19
Wind_Direction
40 41 39 41 50 57 64 71 82 108 143 142 162 254 296 302 309 315 324 318 346 357 322 316 286 276 301 328 345 340 1 39 49 36 44 55 64 65 30 43 66 60 58
48 48 52 56 61 62 71 78 88 110 124 133 144 212 237 236 224 224 225 211 195 201 215 234 249 237 269 275 292 30 51 68 114 109 130 111 109 111 121 128 125 134 144
52 52 57 68 70 71 73 83 96 104 118 129 145 158 163 171 172 170 171 172 183 195 201 207 213 206 208 212 177 163 151 146 137 136 138 132 132 131 133 136 151 181 158
58 57 66 71 79 81 83 87 99 111 117 125 137 143 149 156 161 165 167 167 172 182 185 181 179 174 167 164 159 155 150 148 140 133 125 127 124 126 119 122 148 109 189
61 64 78 85 86 88 89 96 99 105 112 118 129 138 145 155 163 162 162 164 163 161 162 158 153 148 148 149 147 146 141 133 129 126 122 120 121 119 116 101 117 131 108
72 73 92 92 91 93 99 103 107 109 116 117 117 122 128 135 142 148 151 155 153 149 148 151 149 147 146 145 143 141 135 128 125 122 118 115 115 107 97 87 80 71 65
94 106 115 109 106 104 111 115 116 116 118 119 119 120 122 126 131 136 140 144 145 144 145 146 145 147 151 154 153 148 143 143 140 131 131 125 115 94 83 88 81 74 79
121 137 136 133 127 116 111 115 118 121 119 120 120 121 123 127 132 135 137 139 143 145 145 144 145 151 151 150 151 147 141 137 136 136 143 150 137 143 113 94 88 82 80
185 189 183 164 157 146 129 120 119 120 124 127 126 127 126 128 133 136 136 138 139 141 143 145 147 152 152 153 151 147 144 115 122 132 143 142 143 198 121 85 84 79 75
213 207 199 199 191 181 148 140 135 128 125 130 134 136 138 139 139 137 140 140 141 144 147 150 156 158 162 155 144 135 135 123 120 105 94 89 82 79 87 86 70 66 67
211 212 219 235 196 172 168 160 151 147 142 146 148 147 146 147 152 151 147 145 146 152 159 161 158 156 153 144 130 124 119 129 110 95 84 76 71 65 61 65 71 65 56
235 232 233 231 215 181 176 167 183 178 167 162 160 162 163 167 164 168 164 161 163 162 156 156 144 124 109 106 104 102 95 94 92 83 70 66 69 72 66 59 53 53 65
242 243 246 246 219 190 184 168 187 202 193 182 175 179 182 183 177 182 184 185 172 145 141 131 120 114 110 105 100 94 88 86 80 72 71 72 74 73 64 54 51 56 61
264 253 256 265 266 259 204 189 217 223 204 191 188 186 187 184 185 198 201 192 169 141 132 120 114 107 102 101 95 85 78 75 73 68 67 69 70 63 56 51 44 43 48
271 269 272 273 276 275 259 199 218 225 222 208 200 190 182 185 196 215 203 183 156 136 120 111 103 99 90 84 80 68 64 63 60 62 57 54 54 55 54 52 43 37 35
279 284 281 277 283 285 278 253 211 220 233 215 211 207 211 193 218 235 223 140 114 107 82 86 82 73 69 68 65 58 49 49 52 52 48 44 43 44 48 46 40 35 34
278 284 283 284 287 287 286 267 248 256 247 238 235 225 212 218 236 251 161 31 16 71 59 63 64 60 56 52 50 44 41 41 45 43 39 37 38 38 39 38 34 30 30
285 282 283 287 292 293 286 284 269 258 268 273 298 292 248 231 221 321 339 11 16 23 47 52 50 47 45 41 38 35 33 32 33 35 34 31 31 33 34 33 29 26 26
280 285 292 294 298 296 302 307 304 300 298 289 295 302 312 310 354 356 355 7 20 29 35 36 38 37 36 34 32 32 32 31 30 31 30 27 26 28 28 31 27 24 25
304 287 294 300 300 301 310 309 305 319 324 323 316 313 320 333 352 355 356 4 13 22 26 26 25 27 29 28 27 27 26 25 24 24 26 24 22 24 24 28 25 22 23
334 305 301 301 305 308 308 314 310 320 327 334 341 334 331 327 334 348 355 3 12 17 24 23 18 19 23 24 24 23 22 22 21 21 22 20 19 19 22 25 24 23 23
320 314 306 304 304 311 306 307 314 315 326 336 339 335 335 327 327 338 350 360 5 10 20 18 14 16 17 18 18 18 18 18 18 18 18 18 18 18 20 22 22 23 23
310 309 310 310 306 303 306 313 307 307 313 327 337 337 336 329 326 329 338 346 356 1 8 11 11 11 13 13 14 14 13 14 15 16 15 16 17 17 19 23 23 24 22
305 303 302 309 315 304 303 306 312 306 308 313 324 331 336 337 334 329 330 337 347 353 358 1 4 5 6 5 7 9 11 13 13 14 14 16 16 17 21 23 23 23 25
304 303 301 303 309 319 316 318 308 308 309 305 308 317 324 332 336 335 332 332 336 341 347 354 359 0 0 2 4 6 8 9 10 11 12 17 16 17 21 21 22 25 26
301 303 300 298 299 305 310 310 314 316 312 315 315 310 312 321 330 337 338 336 336 340 344 348 353 356 359 1 3 4 5 5 5 6 10 13 15 15 20 20 23 26 25